Temperature
23 24 24 24 24 24 24 24 23 23 23 23 23 23 23 22 21 21 20 20 20 19 19 18 17 17 17 17 16 16 16 16 16 16 15 15 15 15 15 15 15 15 15 15
24 23 24 24 24 24 24 23 23 23 23 23 23 23 23 22 21 21 21 20 20 19 19 18 17 17 17 17 16 16 16 16 16 16 15 15 15 15 15 15 15 15 14 14
23 24 24 23 23 23 23 23 23 23 23 23 22 23 23 23 21 20 20 20 20 19 19 18 18 17 17 17 16 16 16 16 16 15 15 15 15 15 15 15 15 14 14 14
23 24 23 23 23 24 23 24 23 23 23 23 23 23 23 23 22 21 20 20 20 19 19 18 18 17 17 17 16 16 16 15 15 15 15 15 15 15 14 14 14 14 14 14
23 23 23 23 23 23 23 23 23 23 23 23 23 23 23 23 22 22 21 20 19 19 18 18 18 17 17 17 16 16 16 15 15 15 15 15 14 14 14 14 14 14 14 14
23 23 23 23 23 23 23 23 22 23 23 22 23 23 23 23 22 22 22 20 19 19 18 18 17 17 17 16 16 16 15 15 15 15 15 15 14 14 14 14 14 14 13 13
22 23 23 23 23 23 23 23 22 22 22 22 22 22 22 23 22 22 21 20 19 18 18 17 17 17 16 16 16 16 15 15 15 15 15 15 14 14 14 14 13 13 13 13
22 22 23 23 23 23 23 23 22 22 22 22 22 22 23 22 21 20 20 19 19 18 18 17 17 16 16 16 16 15 15 15 15 15 14 14 14 14 14 14 13 13 13 13
22 22 22 22 22 23 23 23 23 23 22 22 22 22 22 21 21 20 19 19 18 18 17 17 16 16 16 16 15 15 15 15 15 15 14 14 14 14 14 13 13 13 13 13
22 22 22 21 22 21 23 23 22 22 21 21 22 22 22 21 21 20 20 19 18 17 17 16 16 16 16 15 15 15 15 14 14 14 14 14 14 14 14 13 13 13 13 13
21 21 21 21 22 22 21 22 22 22 22 21 21 22 22 22 21 20 20 18 17 17 16 16 15 15 15 15 15 15 15 14 14 14 14 14 14 13 13 13 13 13 13 12
20 21 21 21 21 21 21 22 22 21 21 21 21 22 21 21 20 19 19 18 17 16 16 15 15 15 15 15 15 15 14 14 14 14 14 13 13 13 13 13 13 12 12 12
20 20 20 20 20 20 20 20 21 21 21 21 21 21 20 20 20 19 18 17 16 16 15 15 15 15 15 15 15 14 14 14 14 14 13 13 13 13 13 12 12 12 12 12
19 20 20 20 20 20 20 19 19 20 20 21 21 21 21 20 19 18 17 17 16 15 15 14 14 14 14 14 14 14 14 14 14 14 13 13 13 12 12 12 12 12 12 12
19 19 20 20 19 19 19 19 19 19 20 20 20 20 20 20 19 18 17 16 15 15 15 14 14 14 14 14 14 14 14 14 13 13 13 13 13 12 12 12 12 12 12 11
18 19 19 19 19 19 18 19 19 19 19 19 20 20 20 19 18 17 17 16 15 15 15 14 14 14 14 14 14 13 13 13 13 13 13 13 12 12 12 12 11 11 11 11
18 18 18 19 18 18 18 19 19 19 19 19 19 20 19 18 17 17 16 16 15 15 14 14 14 14 14 14 13 13 13 13 13 13 12 12 12 12 12 11 11 11 11 11
17 18 18 18 17 17 19 19 18 18 18 19 19 19 18 17 16 16 15 15 15 14 14 14 13 13 13 13 13 13 13 13 12 12 12 12 12 11 11 11 11 11 11 11
17 17 17 17 17 18 18 18 17 17 18 18 18 17 16 15 16 16 15 14 14 14 14 13 13 13 13 13 13 12 12 12 12 12 12 12 11 11 11 11 11 11 10 10
15 17 17 16 16 17 18 17 16 17 17 17 17 17 16 16 17 17 15 14 13 13 13 13 13 13 13 12 12 12 12 12 12 12 11 11 11 11 11 11 10 10 10 10
15 15 16 16 16 17 17 16 16 17 17 16 16 16 15 16 16 15 14 13 13 13 13 13 13 13 12 12 12 12 12 12 11 11 11 11 11 11 10 10 10 10 10 10
16 15 15 15 15 16 16 15 16 16 15 15 15 14 14 14 13 13 13 13 12 12 13 13 12 12 12 12 12 11 11 11 11 11 11 11 10 10 10 10 10 10 10 9
15 15 16 16 16 15 14 15 14 14 14 14 14 13 13 12 12 12 12 12 12 12 12 12 12 12 12 11 11 11 11 11 11 11 11 10 10 10 10 10 9 9 9 9
14 13 14 14 15 14 13 13 13 13 13 13 12 12 12 12 12 12 12 12 12 11 12 12 11 11 11 11 11 11 11 11 10 10 10 10 10 10 9 9 9 9 9 9
13 13 14 14 15 14 13 12 12 12 12 12 12 12 12 12 12 11 11 11 11 11 11 11 11 11 11 11 11 11 10 10 10 10 10 10 10 9 9 9 9 9 9 9
13 13 13 14 14 14 13 12 12 11 11 11 11 11 11 11 11 11 11 11 11 11 11 11 11 11 11 11 10 10 10 10 10 10 9 10 9 9 9 9 9 9 9 9
Wind_Speed
5 7 8 7 7 5 4 5 4 3 3 4 6 5 4 5 6 6 7 7 7 7 6 6 7 7 6 5 5 4 4 4 3 3 2 2 2 2 2 2 2 2 2 2
7 9 7 6 6 7 7 6 5 3 3 4 4 6 5 5 7 7 7 7 7 7 7 7 7 7 7 6 5 4 4 4 3 2 2 2 2 1 1 1 2 2 2 2
10 4 6 8 8 9 8 8 6 5 3 5 5 6 6 5 6 6 6 6 6 7 7 7 8 8 8 7 7 5 5 4 4 4 3 2 2 1 1 1 1 1 1 2
8 6 6 8 8 9 8 6 7 7 7 5 6 5 5 5 6 6 7 7 6 7 7 7 7 8 7 7 6 6 5 5 5 5 4 4 3 2 1 1 1 1 1 1
6 7 8 9 8 8 5 4 6 7 8 7 7 7 3 4 5 6 6 7 6 6 6 7 6 7 7 7 6 6 5 5 5 5 5 4 3 2 1 1 2 1 1 1
5 5 6 6 5 6 5 5 5 5 7 9 7 7 4 3 4 4 5 5 6 6 5 5 5 5 6 6 6 5 6 6 5 6 6 5 4 3 3 2 2 1 1 1
8 7 5 5 6 7 7 7 5 6 6 5 3 5 4 0 1 2 4 4 5 5 5 5 4 5 5 6 6 6 6 6 6 6 6 5 5 4 4 3 2 2 2 1
9 9 7 6 8 8 9 10 7 5 5 3 4 5 2 1 0 1 2 3 3 4 4 4 4 5 5 6 6 6 6 6 6 6 6 5 5 4 3 3 2 3 2 2
6 6 4 3 4 6 8 9 7 6 6 6 5 4 3 2 2 2 2 3 3 3 3 3 4 4 4 5 6 6 6 5 6 6 6 5 5 4 3 3 3 2 2 2
4 5 4 4 4 1 4 5 5 7 6 7 6 7 4 4 3 2 2 2 2 2 3 3 3 3 4 4 4 5 5 5 5 5 5 4 5 4 4 3 3 3 3 3
5 6 4 6 7 7 6 6 6 6 6 6 6 3 1 2 2 2 2 2 2 2 3 3 2 3 3 3 4 4 5 5 4 5 5 5 4 4 4 4 4 3 3 3
4 5 6 5 3 2 6 6 8 8 7 7 7 4 4 2 1 1 2 2 2 2 3 3 2 2 2 3 3 4 5 5 5 4 4 4 4 4 3 3 3 3 3 3
3 5 7 6 6 5 5 4 6 7 7 8 9 5 3 1 1 1 1 2 2 2 2 2 2 2 2 2 3 3 4 5 4 4 4 4 4 3 3 3 3 3 3 3
3 6 8 7 4 4 6 5 6 7 8 10 11 9 5 4 3 2 2 2 2 2 2 2 2 2 1 2 3 3 4 4 4 4 4 4 4 4 3 3 3 3 3 3
3 6 6 6 4 5 7 8 8 11 11 11 10 10 8 5 5 3 3 3 3 3 2 2 2 2 2 2 2 3 3 4 4 4 4 4 3 3 3 3 3 3 3 4
3 5 6 7 5 5 8 9 10 12 11 12 11 11 6 4 3 4 4 4 4 3 3 3 2 2 2 2 2 3 4 4 4 4 4 3 3 3 3 3 3 3 3 3
4 5 7 8 5 6 9 9 10 10 9 9 11 8 4 4 4 5 5 5 5 4 3 3 3 3 3 3 3 3 4 3 4 4 4 3 3 3 3 3 3 3 3 3
6 7 6 6 6 10 3 1 4 6 7 6 7 6 4 4 4 3 4 5 5 4 4 4 3 3 3 3 3 3 3 3 4 4 4 3 3 3 3 3 3 4 3 3
7 7 6 6 8 8 5 2 3 5 6 4 6 4 3 1 3 3 3 4 5 4 4 4 3 3 3 3 3 3 3 3 4 4 4 4 4 4 4 4 4 4 4 4
4 7 7 7 7 7 2 1 1 4 6 2 4 4 3 3 5 3 1 3 3 2 2 2 3 3 3 3 3 4 4 4 4 4 4 4 5 5 5 5 5 4 4 4
5 5 8 9 9 7 2 1 2 5 3 2 3 3 3 5 5 3 2 2 2 2 2 2 2 3 2 3 3 4 4 4 4 4 4 5 5 5 5 5 5 4 4 4
5 5 7 7 7 6 1 1 3 3 4 3 3 3 3 4 4 3 3 3 2 2 2 2 2 3 2 3 4 4 4 4 3 3 4 5 5 4 4 4 4 4 5 4
5 5 4 5 4 2 0 2 3 4 4 4 4 4 4 4 4 5 4 4 3 3 3 3 3 3 3 4 4 5 4 3 3 3 4 4 4 4 4 4 4 4 4 4
3 3 4 5 6 5 4 4 5 5 5 4 5 5 5 5 5 5 5 4 4 4 4 3 4 4 4 4 5 5 4 4 4 4 4 4 4 4 4 4 4 4 4 4
5 4 6 9 8 6 5 5 5 5 5 6 6 5 6 6 6 6 5 5 5 4 4 4 5 5 5 4 4 4 4 4 4 4 4 4 4 4 4 4 4 5 5 4
7 8 8 8 7 7 7 6 6 7 7 7 7 7 6 6 6 6 6 5 5 5 5 5 6 6 5 4 4 4 4 4 5 4 4 3 3 4 4 4 3 2 3 3
Wind_Direction
192 203 206 205 219 238 224 221 217 216 192 216 222 233 226 201 206 211 211 207 202 203 191 184 177 175 176 177 177 172 177 171 164 159 157 151 140 121 101 79 73 81 93 99
193 211 215 217 208 215 223 227 221 197 187 226 235 250 242 219 215 215 214 208 203 198 192 186 185 183 186 185 187 184 184 181 181 182 179 172 141 120 93 89 80 77 85 91
208 202 202 205 206 215 223 231 230 227 213 216 244 248 224 213 214 217 220 218 211 206 201 198 196 194 192 192 193 190 191 190 189 180 165 149 143 152 135 113 101 78 87 91
215 211 198 205 213 225 227 230 236 232 235 234 238 267 227 212 211 211 212 214 215 212 212 209 205 201 198 196 194 195 193 195 187 181 180 179 185 181 190 167 144 130 113 107
202 201 206 214 219 224 234 221 223 231 243 253 239 257 243 204 223 216 211 210 207 207 206 204 206 204 198 192 193 197 194 192 188 187 186 196 198 191 177 166 155 154 140 140
213 202 220 223 213 206 188 184 191 222 242 249 244 246 259 213 236 221 200 201 206 205 202 200 199 197 194 187 188 195 193 193 194 197 196 197 193 190 181 183 178 179 168 169
208 207 205 210 197 189 206 218 222 223 225 242 200 239 252 80 265 234 211 203 198 195 193 191 186 183 187 188 190 189 189 192 193 197 197 197 196 195 196 196 191 201 196 184
214 208 198 208 223 217 211 225 238 251 249 235 204 234 215 124 116 232 214 194 184 185 188 187 184 181 185 189 193 195 195 194 190 195 195 196 196 201 206 211 212 217 217 203
225 213 170 192 224 227 211 222 249 262 263 259 231 223 216 163 169 144 155 163 174 186 185 184 182 181 182 190 195 199 198 195 191 195 195 197 201 207 212 212 211 212 210 199
252 231 193 184 182 204 253 208 215 235 249 249 239 236 228 190 193 179 167 170 179 174 178 180 183 184 183 187 195 196 197 198 194 195 195 197 204 207 209 210 203 202 202 200
244 232 202 197 213 214 194 207 220 232 249 259 256 236 152 181 170 187 198 188 175 171 171 167 163 174 180 184 188 189 192 194 194 197 196 194 198 201 201 203 204 204 203 202
227 240 227 216 204 255 231 228 225 238 240 246 265 260 107 141 142 183 200 180 161 161 162 156 153 152 159 177 193 191 193 194 196 198 196 196 194 195 202 204 208 204 200 202
197 229 228 209 195 192 205 212 229 248 253 244 248 244 142 213 277 247 210 181 159 157 160 159 162 169 172 180 192 190 192 195 191 188 194 194 194 199 204 210 210 203 201 202
233 234 240 247 253 211 218 217 222 231 244 248 247 261 260 262 263 250 202 171 155 158 170 178 186 191 201 207 198 188 190 191 188 181 185 196 202 202 203 205 207 208 206 206
237 239 239 256 262 243 241 240 231 237 251 259 262 263 274 271 256 241 212 189 175 174 189 198 207 213 215 216 207 192 187 186 184 181 187 196 202 199 195 200 210 209 207 214
246 240 235 238 236 241 250 251 243 244 250 253 260 265 275 280 256 229 222 207 199 199 209 212 215 219 221 219 213 202 191 190 187 188 196 199 198 194 197 200 206 212 213 214
223 232 245 248 241 252 253 248 240 238 239 248 256 266 256 244 236 234 232 226 220 219 222 225 224 219 225 225 214 203 195 191 196 198 199 197 196 199 206 203 202 210 216 211
229 234 246 256 247 245 257 54 239 242 253 259 268 277 267 258 261 251 237 234 236 233 231 231 232 225 221 215 210 198 186 193 200 204 206 201 200 205 207 206 211 218 219 216
229 226 234 243 250 259 261 255 233 242 261 260 264 271 276 241 225 242 245 245 242 239 239 233 229 222 212 207 204 194 189 197 208 212 213 208 209 209 207 211 216 218 220 223
198 219 230 235 247 256 279 39 269 244 253 272 263 255 243 229 242 254 253 248 250 249 243 232 216 210 209 205 198 198 202 209 218 222 221 215 214 211 210 213 215 215 217 224
188 207 225 236 245 257 329 353 209 236 290 359 283 266 247 250 281 314 297 249 239 239 240 227 210 208 214 202 199 210 215 225 229 228 223 216 216 218 219 217 215 213 213 218
220 216 221 228 238 250 82 179 232 315 350 327 311 299 279 288 307 308 292 268 251 249 245 229 216 216 212 202 205 220 230 236 227 223 223 221 218 217 220 218 220 217 208 209
231 241 242 233 250 357 205 272 321 322 309 311 304 298 288 285 287 286 278 266 257 253 249 232 219 222 224 217 216 226 232 228 223 225 226 224 221 216 216 214 213 215 215 218
235 254 243 249 254 277 284 288 299 301 298 304 301 296 287 281 281 279 272 262 256 253 246 232 223 229 235 234 228 228 224 220 221 226 229 225 220 218 216 216 215 215 218 223
255 237 249 257 266 274 266 275 289 301 306 307 305 299 290 283 278 274 267 260 253 250 244 235 231 236 240 236 230 226 218 215 224 228 230 227 221 223 223 223 224 225 226 230
240 242 249 260 271 270 272 283 292 290 292 297 300 300 295 284 277 274 269 264 257 253 253 247 241 238 237 232 230 228 221 221 226 230 232 229 225 225 226 227 231 226 231 223
Height
1506 1506 1505 1505 1506 1506 1507 1510 1512 1512 1512 1514 1514 1515 1515 1518 1520 1521 1522 1523 1525 1527 1529 1530 1531 1533 1534 1535 1536 1537 1538 1538 1538 1538 1538 1538 1539 1539 1539 1538 1538 1538 1538 1538
1504 1504 1503 1504 1506 1507 1507 1510 1511 1511 1512 1513 1513 1513 1513 1515 1517 1518 1519 1521 1523 1525 1527 1528 1530 1531 1532 1534 1535 1536 1536 1537 1537 1537 1538 1538 1538 1538 1538 1538 1538 1538 1538 1538
1501 1502 1503 1505 1506 1507 1507 1508 1509 1511 1512 1512 1513 1512 1510 1511 1515 1517 1518 1519 1521 1523 1524 1526 1528 1529 1531 1532 1533 1534 1535 1535 1536 1536 1537 1537 1537 1538 1538 1537 1537 1537 1537 1537
1500 1501 1503 1504 1505 1504 1507 1505 1507 1510 1512 1511 1512 1515 1506 1506 1510 1513 1515 1517 1519 1521 1522 1524 1526 1527 1528 1529 1530 1532 1533 1534 1534 1535 1535 1536 1536 1536 1536 1536 1536 1536 1536 1536
1499 1500 1502 1503 1503 1503 1503 1505 1506 1508 1509 1510 1509 1512 1505 1504 1507 1508 1512 1514 1516 1518 1520 1521 1523 1524 1525 1527 1528 1529 1531 1531 1532 1533 1533 1534 1535 1535 1535 1535 1535 1535 1535 1535
1497 1500 1500 1500 1501 1503 1504 1506 1507 1507 1507 1515 1507 1510 1508 1502 1504 1505 1508 1512 1514 1516 1517 1519 1520 1521 1523 1524 1525 1527 1528 1529 1530 1530 1531 1532 1533 1533 1534 1534 1534 1534 1534 1533
1499 1498 1499 1500 1501 1502 1502 1506 1513 1515 1515 1511 1505 1509 1506 1501 1503 1505 1507 1510 1512 1513 1515 1516 1517 1518 1520 1522 1523 1524 1526 1526 1527 1528 1529 1530 1531 1531 1532 1532 1532 1532 1532 1532
1499 1500 1496 1498 1497 1498 1499 1501 1510 1517 1514 1507 1506 1507 1501 1501 1504 1505 1507 1508 1510 1512 1513 1515 1516 1516 1518 1519 1521 1522 1523 1524 1525 1526 1527 1528 1529 1530 1530 1531 1531 1531 1531 1531
1497 1497 1495 1497 1497 1496 1498 1499 1497 1502 1504 1508 1502 1500 1498 1501 1502 1504 1506 1508 1509 1510 1512 1513 1514 1515 1516 1518 1519 1520 1521 1522 1523 1524 1525 1526 1527 1528 1528 1529 1529 1529 1529 1529
1495 1498 1496 1497 1497 1499 1496 1495 1500 1503 1511 1511 1504 1501 1498 1498 1500 1502 1505 1506 1508 1509 1511 1512 1512 1513 1514 1516 1517 1518 1519 1520 1521 1522 1523 1524 1525 1525 1526 1527 1527 1527 1527 1527
1496 1498 1498 1496 1496 1496 1499 1500 1498 1499 1501 1506 1506 1502 1492 1495 1498 1501 1503 1505 1507 1508 1509 1510 1511 1511 1512 1514 1515 1515 1517 1518 1519 1520 1521 1522 1523 1523 1524 1524 1524 1525 1525 1525
1497 1495 1496 1496 1496 1497 1495 1495 1497 1503 1501 1500 1502 1502 1495 1497 1499 1501 1502 1504 1506 1507 1508 1509 1510 1510 1511 1511 1512 1513 1514 1516 1517 1518 1519 1519 1520 1521 1522 1522 1522 1523 1523 1523
1498 1497 1500 1500 1500 1499 1497 1498 1497 1497 1497 1499 1503 1500 1495 1496 1498 1500 1502 1503 1504 1505 1506 1507 1508 1509 1509 1510 1511 1511 1512 1513 1515 1516 1516 1517 1518 1518 1519 1520 1520 1520 1521 1521
1499 1495 1497 1500 1495 1494 1498 1500 1499 1498 1498 1497 1496 1494 1493 1495 1497 1499 1500 1502 1503 1504 1505 1505 1506 1507 1507 1508 1509 1509 1510 1511 1512 1513 1514 1514 1515 1516 1516 1517 1518 1518 1518 1519
1498 1495 1494 1494 1495 1495 1496 1497 1498 1498 1495 1496 1492 1493 1492 1493 1495 1497 1499 1500 1501 1502 1503 1503 1504 1505 1505 1506 1506 1507 1508 1509 1510 1511 1511 1512 1513 1513 1513 1514 1515 1515 1516 1516
1498 1495 1494 1496 1495 1495 1496 1494 1495 1495 1494 1493 1492 1492 1491 1494 1495 1496 1497 1499 1500 1500 1501 1501 1502 1503 1503 1504 1504 1505 1506 1507 1508 1509 1509 1510 1510 1510 1510 1511 1512 1512 1513 1513
1497 1495 1496 1494 1494 1495 1495 1490 1491 1491 1490 1490 1490 1489 1490 1492 1494 1495 1496 1496 1497 1499 1499 1500 1500 1500 1501 1502 1502 1503 1503 1504 1505 1506 1507 1507 1507 1508 1508 1508 1509 1509 1510 1510
1496 1495 1495 1494 1497 1500 1488 1487 1488 1489 1488 1488 1488 1489 1490 1491 1493 1494 1494 1495 1495 1496 1497 1497 1498 1498 1499 1500 1500 1501 1501 1502 1503 1503 1504 1504 1504 1505 1505 1505 1506 1506 1507 1507
1494 1494 1495 1495 1494 1489 1487 1487 1488 1489 1487 1487 1488 1489 1490 1491 1491 1491 1492 1493 1494 1494 1495 1495 1496 1496 1497 1498 1498 1499 1499 1500 1500 1501 1501 1501 1502 1502 1502 1502 1503 1504 1504 1504
1495 1493 1493 1494 1495 1493 1486 1486 1488 1489 1487 1486 1487 1488 1489 1489 1488 1488 1490 1490 1491 1491 1492 1492 1493 1493 1494 1495 1495 1496 1496 1496 1497 1497 1498 1499 1499 1499 1499 1500 1500 1501 1501 1502
1493 1494 1493 1491 1491 1486 1485 1488 1488 1491 1486 1487 1487 1487 1488 1488 1487 1488 1488 1488 1489 1489 1489 1489 1490 1490 1491 1492 1492 1493 1493 1494 1494 1495 1495 1496 1496 1496 1497 1497 1497 1498 1498 1498
1489 1490 1490 1490 1491 1490 1487 1487 1487 1487 1487 1487 1487 1487 1487 1487 1487 1486 1486 1486 1486 1486 1486 1487 1487 1488 1488 1489 1489 1490 1490 1491 1491 1491 1492 1492 1493 1493 1493 1494 1494 1494 1495 1495
1488 1487 1485 1486 1487 1486 1487 1487 1488 1488 1487 1486 1486 1486 1486 1485 1484 1484 1484 1483 1483 1483 1483 1484 1484 1485 1485 1486 1486 1486 1487 1488 1488 1488 1489 1489 1490 1490 1490 1490 1490 1490 1491 1491
1488 1490 1488 1486 1484 1486 1487 1487 1487 1487 1486 1486 1485 1484 1483 1482 1482 1482 1481 1481 1480 1480 1480 1480 1481 1481 1482 1482 1482 1483 1484 1484 1484 1485 1485 1486 1486 1486 1486 1486 1487 1487 1487 1487
1487 1488 1486 1484 1484 1485 1485 1485 1485 1485 1484 1483 1483 1482 1481 1479 1479 1478 1478 1477 1477 1477 1477 1477 1477 1478 1478 1478 1479 1479 1480 1480 1481 1481 1481 1482 1482 1482 1482 1483 1483 1483 1483 1483
1486 1485 1484 1481 1482 1482 1482 1483 1483 1482 1481 1481 1479 1478 1477 1477 1476 1475 1474 1474 1474 1473 1473 1473 1473 1474 1474 1475 1475 1475 1476 1476 1477 1477 1477 1478 1478 1478 1478 1478 1478 1478 1479 1479